| time (UTC) | temp C | wind direction | speed KPH | gust KPH | rain 1hr cm | rain 24hr cm | rain mn cm | humidity % | barometer mb |
| 20260506061531 | 10 | 119 | 0.0 | 3.2 | 0.00 | 0.28 | 0.00 | 83 | 1005.4 |
| 20260506044548 | 9 | 117 | 0.0 | 0.0 | 0.00 | 0.28 | 0.00 | 84 | 1005.5 |
| 20260506043018 | 9 | 117 | 0.0 | 0.0 | 0.00 | 0.28 | 0.00 | 84 | 1005.5 |
| 20260506041515 | 9 | 117 | 0.0 | 0.0 | 0.00 | 0.28 | 0.00 | 84 | 1005.5 |
| 20260506040015 | 9 | 117 | 0.0 | 0.0 | 0.00 | 0.28 | 0.00 | 84 | 1005.7 |
| 20260506034536 | 9 | 117 | 0.0 | 0.0 | 0.00 | 0.28 | 0.00 | 85 | 1005.8 |
| 20260506033013 | 9 | 117 | 0.0 | 0.0 | 0.00 | 0.28 | 0.00 | 85 | 1005.7 |
| 20260506031511 | 9 | 117 | 0.0 | 0.0 | 0.00 | 0.28 | 0.00 | 85 | 1005.7 |
| 20260506030010 | 10 | 117 | 0.0 | 0.0 | 0.00 | 0.28 | 0.00 | 85 | 1005.6 |
| 20260506024508 | 10 | 117 | 0.0 | 0.0 | 0.00 | 0.28 | 0.00 | 85 | 1005.7 |
| 20260506023006 | 10 | 118 | 0.0 | 0.0 | 0.00 | 0.28 | 0.00 | 84 | 1006.1 |
| 20260506021506 | 10 | 118 | 0.0 | 0.0 | 0.00 | 0.28 | 0.00 | 85 | 1006.3 |
| 20260506020005 | 10 | 117 | 0.0 | 0.0 | 0.00 | 0.28 | 0.00 | 85 | 1006.3 |
| 20260506014553 | 10 | 117 | 0.0 | 0.0 | 0.00 | 0.28 | 0.00 | 85 | 1006.3 |
| 20260506013051 | 10 | 117 | 0.0 | 0.0 | 0.00 | 0.28 | 0.00 | 85 | 1006.3 |
| 20260506011603 | 10 | 117 | 0.0 | 0.0 | 0.00 | 0.28 | 0.00 | 85 | 1006.2 |
| 20260506010056 | 10 | 117 | 0.0 | 0.0 | 0.00 | 0.28 | 0.00 | 85 | 1006.2 |
| 20260506004603 | 10 | 117 | 0.0 | 0.0 | 0.00 | 0.28 | 0.00 | 85 | 1006.1 |
| 20260506003056 | 11 | 117 | 0.0 | 3.2 | 0.00 | 0.28 | 0.00 | 85 | 1006.5 |
| 20260506001541 | 11 | 161 | 0.0 | 1.6 | 0.00 | 0.28 | 0.00 | 85 | 1006.5 |
| 20260506000040 | 11 | 163 | 0.0 | 0.0 | 0.00 | 0.28 | 0.00 | 85 | 1006.7 |
| 20260505234558 | 11 | 163 | 0.0 | 0.0 | 0.00 | 0.28 | 0.00 | 85 | 1006.8 |
| 20260505233039 | 11 | 163 | 0.0 | 0.0 | 0.00 | 0.28 | 0.00 | 85 | 1006.9 |
| 20260505231536 | 11 | 163 | 0.0 | 1.6 | 0.00 | 0.28 | 0.00 | 85 | 1006.9 |
| 20260505230041 | 11 | 163 | 0.0 | 0.0 | 0.00 | 0.28 | 0.00 | 85 | 1006.9 |
| 20260505224539 | 11 | 163 | 0.0 | 0.0 | 0.00 | 0.28 | 0.00 | 85 | 1006.9 |
| 20260505223034 | 11 | 163 | 0.0 | 0.0 | 0.00 | 0.28 | 0.00 | 85 | 1006.8 |
| 20260505221531 | 11 | 163 | 0.0 | 0.0 | 0.00 | 0.28 | 0.00 | 85 | 1006.8 |
| 20260505220041 | 12 | 163 | 0.0 | 0.0 | 0.00 | 0.28 | 0.28 | 85 | 1006.7 |
| 20260505214536 | 12 | 163 | 0.0 | 0.0 | 0.00 | 0.28 | 0.28 | 85 | 1006.9 |
| 20260505213028 | 11 | 163 | 0.0 | 0.0 | 0.00 | 0.28 | 0.28 | 85 | 1007.0 |
| 20260505211521 | 11 | 163 | 0.0 | 0.0 | 0.00 | 0.28 | 0.28 | 85 | 1007.0 |
| 20260505210020 | 11 | 163 | 0.0 | 0.0 | 0.00 | 0.28 | 0.28 | 85 | 1007.0 |
| 20260505204519 | 12 | 163 | 0.0 | 0.0 | 0.00 | 0.28 | 0.28 | 85 | 1006.8 |
| 20260505201524 | 12 | 163 | 0.0 | 0.0 | 0.00 | 0.28 | 0.28 | 85 | 1006.6 |
| 20260505200021 | 13 | 163 | 0.0 | 1.6 | 0.00 | 0.28 | 0.28 | 85 | 1006.6 |
| 20260505194531 | 13 | 163 | 0.0 | 1.6 | 0.00 | 0.28 | 0.28 | 85 | 1006.3 |
| 20260505193034 | 13 | 164 | 0.0 | 1.6 | 0.00 | 0.28 | 0.28 | 85 | 1006.2 |
| 20260505191520 | 13 | 164 | 0.0 | 4.8 | 0.00 | 0.28 | 0.28 | 84 | 1006.0 |
| 20260505190021 | 13 | 168 | 0.0 | 0.0 | 0.00 | 0.28 | 0.28 | 85 | 1005.9 |
| 20260505184520 | 13 | 168 | 0.0 | 1.6 | 0.00 | 0.28 | 0.28 | 85 | 1006.0 |
| 20260505183023 | 13 | 220 | 0.0 | 0.0 | 0.00 | 0.28 | 0.28 | 84 | 1006.0 |
| 20260505181517 | 14 | 220 | 0.0 | 0.0 | 0.00 | 0.28 | 0.28 | 84 | 1005.7 |
| 20260505180013 | 14 | 220 | 0.0 | 1.6 | 0.00 | 0.28 | 0.28 | 84 | 1005.7 |
| 20260505174522 | 14 | 220 | 0.0 | 0.0 | 0.00 | 0.28 | 0.28 | 83 | 1005.7 |
| 20260505173011 | 14 | 220 | 0.0 | 3.2 | 0.00 | 0.28 | 0.28 | 83 | 1006.1 |
| 20260505171519 | 14 | 346 | 0.0 | 0.0 | 0.00 | 0.28 | 0.28 | 83 | 1006.0 |
| 20260505164519 | 15 | 346 | 0.0 | 0.0 | 0.00 | 0.28 | 0.28 | 83 | 1005.7 |
| 20260505161511 | 14 | 346 | 0.0 | 0.0 | 0.00 | 0.28 | 0.28 | 83 | 1005.7 |
| 20260505153015 | 14 | 277 | 0.0 | 3.2 | 0.00 | 0.28 | 0.28 | 84 | 1005.8 |
| 20260505151511 | 13 | 276 | 0.0 | 0.0 | 0.00 | 0.28 | 0.28 | 84 | 1006.2 |
| 20260505124521 | 18 | 336 | 0.0 | 19.3 | 0.00 | 0.00 | 0.00 | 64 | 1006.0 |
| 20260505121527 | 20 | 290 | 0.0 | 4.8 | 0.00 | 0.00 | 0.00 | 61 | 1005.7 |
| 20260505120030 | 20 | 296 | 0.0 | 4.8 | 0.00 | 0.00 | 0.00 | 61 | 1005.7 |
| 20260505114526 | 20 | 292 | 0.0 | 3.2 | 0.00 | 0.00 | 0.00 | 61 | 1005.6 |
| 20260505113033 | 20 | 294 | 0.0 | 1.6 | 0.00 | 0.00 | 0.00 | 61 | 1005.8 |
| 20260505111539 | 20 | 293 | 0.0 | 4.8 | 0.00 | 0.00 | 0.00 | 61 | 1005.8 |
| 20260505101514 | 20 | 307 | 0.0 | 12.9 | 0.00 | 0.00 | 0.00 | 62 | 1006.4 |
| 20260505100011 | 20 | 261 | 0.0 | 9.7 | 0.00 | 0.00 | 0.00 | 63 | 1006.4 |
| 20260505094539 | 20 | 337 | 0.0 | 6.4 | 0.00 | 0.00 | 0.00 | 62 | 1006.5 |
| 20260505093037 | 20 | 273 | 0.0 | 8.0 | 0.00 | 0.00 | 0.00 | 61 | 1006.6 |
| 20260505091534 | 19 | 287 | 0.0 | 9.7 | 0.00 | 0.00 | 0.00 | 65 | 1006.8 |
| 20260505090033 | 18 | 229 | 0.0 | 4.8 | 0.00 | 0.00 | 0.00 | 65 | 1006.9 |
| 20260505084525 | 18 | 279 | 0.0 | 8.0 | 0.00 | 0.00 | 0.00 | 68 | 1006.9 |
| 20260505081528 | 17 | 213 | 0.0 | 0.0 | 0.00 | 0.00 | 0.00 | 72 | 1007.2 |
| 20260505080030 | 16 | 211 | 0.0 | 3.2 | 0.00 | 0.00 | 0.00 | 74 | 1007.4 |
| 20260505074548 | 16 | 305 | 0.0 | 3.2 | 0.00 | 0.00 | 0.00 | 75 | 1007.5 |
| 20260505071552 | 15 | 278 | 0.0 | 4.8 | 0.00 | 0.00 | 0.00 | 75 | 1007.5 |